Regional Weather Roundup
Issued by NWS

Home | Current Version | Previous Version | Graphics & Text | Print | Product List | Glossary On
Versions: 1 2 3 4 5 6 7 8 9 10 11 12 13 14 15 16 17 18 19 20 21 22 23 24 25 26 27 28
000
ASUS45 KBOI 270910
RWRID

IDAHO REGIONAL WEATHER ROUNDUP
NATIONAL WEATHER SERVICE BOISE ID
300 AM MDT TUE JUN 27 2017

NOTE: "FAIR" INDICATES FEW OR NO CLOUDS BELOW 12000 FEET
WITH NO SIGNIFICANT WEATHER AND/OR OBSTRUCTIONS TO VISIBILITY

IDZ012-014-271000-
SOUTHWEST IDAHO


CITY           SKY/WX    TMP DP  RH WIND       PRES   REMARKS
BOISE          PTCLDY    68  49  50 W10       29.87F
CALDWELL       PTCLDY    66  52  60 W5        29.87F
MOUNTAIN HOME  PTCLDY    68  50  51 NW14      29.87S
$$

IDZ016-017-271000-
SOUTHCENTRAL IDAHO


CITY           SKY/WX    TMP DP  RH WIND       PRES   REMARKS
BURLEY         MOCLDY    64  54  69 W7        29.89S
JEROME         PTCLDY    63  52  67 CALM      29.90R
TWIN FALLS     MOCLDY    63  52  67 SW13      29.91R
$$

IDZ019>023-271000-
SOUTHEAST IDAHO


CITY           SKY/WX    TMP DP  RH WIND       PRES   REMARKS
IDAHO FALLS    LGT RAIN  65  53  65 N8        29.96S
POCATELLO      PTCLDY    69  49  48 E7        29.92S
REXBURG        LGT RAIN  67  51  56 S8        29.98R
$$

IDZ006-010-011-018-031-032-271000-
CENTRAL IDAHO MOUNTAINS


CITY           SKY/WX    TMP DP  RH WIND       PRES   REMARKS
MCCALL         CLOUDY    59  48  67 NE5       29.99F
HAILEY         CLEAR     59  46  63 NW8       29.99S
STANLEY          N/A     46  44  93 CALM      30.07F
SALMON         MOCLDY    57  52  82 CALM      29.93F
CHALLIS        CLEAR     57  48  72 CALM      29.96F
$$

IDZ002-004-006-007-026-271000-
NORTHERN IDAHO


CITY           SKY/WX    TMP DP  RH WIND       PRES   REMARKS
LEWISTON       MOCLDY    72  54  53 E9        29.80F
LOWELL           N/A     62  57  83 CALM      29.83R
COEUR D`ALENE  MOCLDY    62  59  90 S6        29.82R
MULLAN PASS    LGT RAIN  55  44  66 SW6       29.96F
$$




USA.gov is the U.S. government's official web portal to all federal, state and local government web resources and services.